sat.trackr.live / text

‹ back to catalog

NANOSAT 1B

NORAD 35685 · 2009-041E

PAYLOAD ACTIVE UNKNOWN

§ Identity

Operator
Country
SPN
Launch date
2009-07-29
Launch site
TYMSC
Launch vehicle
Mass (kg)
RCS (m²)
0.25

External: N2YO · Heavens-Above · Gunter

§ Orbital elements

Epoch: 2026-09-20T04:15:16.910784Z

Period
96.43 min
Inclination
98.1270°
Eccentricity
0.0048457
Mean motion
14.93318347 rev/d
Perigee alt
553.8 km
Apogee alt
621.4 km
Semi-major
6,965.7 km
B*
1.0629e-4
RAAN
24.9297°
Arg perigee
210.3669°
Mean anomaly
149.4741°
Rev number
92,859

§ Raw data

NANOSAT 1B1 35685U 09041E   26263.17727906  .00001074  00000+0  10629-3 0  99912 35685  98.1270  24.9297 0048457 210.3669 149.4741 14.93318347928590

JSON: /api/v1/satellites/35685 · /tle

For live sub-satellite position, see the globe view (requires WebGL).

§ Visibility from observer

Set your observer location to see the next 7 days of passes ≥ 10°. The values pass through the URL so the page stays shareable.

No JS? Fill the form by hand. The geolocation button needs JavaScript.